Date String (YYYY-MM-DD hh:mm:ss) UTC,Instrument flags,Ambient pressure (hPa),Sample flow (lpm),Bypass flow (lpm),Sample temperature (°C),Ambient temperature (°C),ASC tube jacket temperature (°C),LED temperature (°C),Box temperature (°C),Sample RH (%),Span deviation,Mass concentration (μg/m³),Mass concentration (μg/m³),Mass concentration (μg/m³)
DateTimeUTC,F1_M11,P_M11,Q1_M11,Q2_M11,T1_M11,T2_M11,T3_M11,T4_M11,T5_M11,U1_M11,ZSPAN_M11,X0_M11,X2_M11,X1_M11
2021-09-06 01:00:00,,0829.9,5.00,0.00,29.1,26.6,00.0,38.3,30.7,12.1,0002.1,0015.12,0009.38,0008.66
2021-09-06 01:01:00,,0829.9,4.99,0.00,29.2,27.1,00.0,38.3,30.9,11.9,0001.8,0015.08,0009.43,0008.70
2021-09-06 01:02:00,,0829.9,5.00,0.00,29.2,27.5,00.0,38.3,31.0,11.8,0002.2,0014.51,0009.51,0008.74
2021-09-06 01:03:00,,0829.9,5.01,0.00,29.3,27.9,00.0,38.3,31.1,11.6,0002.1,0014.64,0009.51,0008.74
2021-09-06 01:04:00,,0829.8,5.00,0.00,29.3,28.2,00.0,38.3,31.2,11.6,0002.1,0014.80,0009.57,0008.76
2021-09-06 01:05:00,,0829.9,4.99,0.00,29.4,28.4,00.0,38.3,31.3,11.5,0002.0,0014.72,0009.58,0008.76
2021-09-06 01:06:00,,0829.8,5.01,0.00,29.4,28.6,00.0,38.3,31.4,11.2,0002.4,0014.79,0009.58,0008.77
2021-09-06 01:07:00,,0829.9,5.01,0.00,29.5,28.7,00.0,38.4,31.4,11.2,0002.5,0014.77,0009.54,0008.76
2021-09-06 01:08:00,,0829.9,5.00,0.00,29.5,27.4,00.0,38.4,31.1,11.2,0002.4,0015.16,0009.52,0008.78
2021-09-06 01:09:00,,0829.9,5.01,0.00,29.3,25.7,00.0,38.3,30.6,11.3,0002.9,0015.35,0009.56,0008.79
2021-09-06 01:10:00,,0829.8,4.99,0.00,29.2,25.7,00.0,38.3,30.6,11.3,0002.8,0015.46,0009.60,0008.80
2021-09-06 01:11:00,,0829.9,5.00,0.00,29.2,26.2,00.0,38.3,30.7,11.4,0002.7,0015.32,0009.56,0008.79
2021-09-06 01:12:00,,0829.9,5.00,0.00,29.1,26.7,00.0,38.3,30.8,11.5,0002.4,0015.43,0009.52,0008.76
2021-09-06 01:13:00,,0829.9,5.01,0.00,29.2,27.2,00.0,38.3,30.9,11.5,0002.2,0016.36,0009.51,0008.75
2021-09-06 01:14:00,,0829.9,4.98,0.00,29.2,27.6,00.0,38.3,31.0,11.6,0002.5,0016.16,0009.45,0008.72
2021-09-06 01:15:00,,0829.9,5.00,0.00,29.3,27.9,00.0,38.3,31.1,11.5,0002.3,0016.57,0009.38,0008.69
2021-09-06 01:16:00,,0829.8,5.00,0.00,29.3,28.2,00.0,38.3,31.2,11.5,0002.6,0016.75,0009.39,0008.69
2021-09-06 01:17:00,,0829.9,5.01,0.00,29.4,28.4,00.0,38.3,31.3,11.5,0001.7,0017.12,0009.37,0008.68
2021-09-06 01:18:00,,0829.9,5.00,0.00,29.4,28.6,00.0,38.3,31.4,11.4,0001.1,0017.02,0009.36,0008.68
2021-09-06 01:19:00,,0829.9,4.98,0.00,29.5,28.5,00.0,38.4,31.4,11.3,0001.8,0016.60,0009.35,0008.66
2021-09-06 01:20:00,,0829.9,5.02,0.00,29.4,26.7,00.0,38.3,30.9,11.2,0001.5,0017.37,0009.28,0008.64
2021-09-06 01:21:00,,0829.8,4.99,0.00,29.2,25.5,00.0,38.3,30.5,11.3,0001.7,0017.74,0009.24,0008.62
2021-09-06 01:22:00,,0829.8,5.01,0.00,29.1,25.7,00.0,38.3,30.5,11.4,0002.0,0017.76,0009.26,0008.62
2021-09-06 01:23:00,,0829.8,5.01,0.00,29.1,26.2,00.0,38.3,30.6,11.3,0002.1,0017.65,0009.26,0008.62
2021-09-06 01:24:00,,0829.8,4.99,0.00,29.1,26.7,00.0,38.2,30.7,11.3,0002.0,0017.06,0009.22,0008.61
2021-09-06 01:25:00,,0829.9,5.00,0.00,29.1,27.1,00.0,38.2,30.8,11.2,0001.9,0017.31,0009.23,0008.63
2021-09-06 01:26:00,,0829.9,5.00,0.00,29.1,27.5,00.0,38.2,31.0,11.1,0001.9,0016.92,0009.24,0008.63
2021-09-06 01:27:00,,0829.9,5.01,0.00,29.2,27.9,00.0,38.2,31.1,11.0,0001.7,0016.81,0009.23,0008.63
2021-09-06 01:28:00,,0829.9,5.00,0.00,29.3,28.1,00.0,38.2,31.2,11.0,0001.8,0016.39,0009.23,0008.62
2021-09-06 01:29:00,,0829.9,4.99,0.00,29.3,28.4,00.0,38.3,31.3,11.1,0002.2,0016.46,0009.20,0008.60
2021-09-06 01:30:00,,0829.9,5.00,0.00,29.4,28.5,00.0,38.3,31.3,11.1,0002.2,0017.33,0009.22,0008.60
2021-09-06 01:31:00,,0829.9,4.99,0.00,29.4,28.7,00.0,38.3,31.4,11.1,0002.3,0016.49,0009.29,0008.62
2021-09-06 01:32:00,,0829.9,5.01,0.00,29.5,28.8,00.0,38.4,31.4,11.0,0002.3,0016.37,0009.33,0008.61
2021-09-06 01:33:00,,0829.9,5.00,0.00,29.6,28.5,00.0,38.4,31.4,11.0,0002.1,0017.24,0009.31,0008.61
2021-09-06 01:34:00,,0829.9,5.00,0.00,29.4,26.5,00.0,38.4,30.8,11.3,0002.4,0017.41,0009.35,0008.63
2021-09-06 01:35:00,,0829.9,5.00,0.00,29.3,25.4,00.0,38.4,30.5,11.3,0002.6,0017.63,0009.44,0008.65
2021-09-06 01:36:00,,0829.9,5.00,0.00,29.2,25.7,00.0,38.3,30.6,11.6,0002.4,0017.55,0009.50,0008.66
2021-09-06 01:37:00,,0829.9,5.00,0.00,29.1,26.2,00.0,38.3,30.7,11.7,0002.3,0017.63,0009.51,0008.66
2021-09-06 01:38:00,,0829.9,5.02,0.00,29.1,26.7,00.0,38.3,30.8,11.8,0002.3,0017.66,0009.51,0008.65
2021-09-06 01:39:00,,0829.9,4.99,0.00,29.1,27.1,00.0,38.2,30.9,11.5,0002.3,0017.74,0009.50,0008.64
2021-09-06 01:40:00,,0829.9,5.00,0.00,29.2,27.5,00.0,38.2,31.0,11.4,0002.2,0017.79,0009.54,0008.64
2021-09-06 01:41:00,,0829.9,4.99,0.00,29.2,27.8,00.0,38.2,31.1,11.2,0002.1,0017.11,0009.53,0008.62
2021-09-06 01:42:00,,0829.9,5.01,0.00,29.3,28.1,00.0,38.3,31.1,11.2,0002.0,0017.50,0009.52,0008.61
2021-09-06 01:43:00,,0830.0,5.01,0.00,29.3,28.3,00.0,38.3,31.2,11.2,0002.1,0018.03,0009.54,0008.62
2021-09-06 01:44:00,,0830.0,4.99,0.00,29.4,28.5,00.0,38.3,31.3,11.0,0002.0,0017.30,0009.57,0008.64
2021-09-06 01:45:00,,0830.0,5.00,0.00,29.4,28.7,00.0,38.3,31.4,11.0,0001.7,0017.46,0009.56,0008.63
2021-09-06 01:46:00,,0830.0,5.02,0.00,29.5,28.8,00.0,38.4,31.4,11.0,0001.4,0016.92,0009.49,0008.61
2021-09-06 01:47:00,,0830.0,4.99,0.00,29.5,28.2,00.0,38.4,31.3,10.9,0001.5,0017.54,0009.46,0008.61
2021-09-06 01:48:00,,0830.0,5.00,0.00,29.4,26.0,00.0,38.3,30.6,10.9,0002.2,0017.69,0009.47,0008.61
2021-09-06 01:49:00,,0830.0,5.00,0.00,29.2,25.2,00.0,38.3,30.4,11.0,0002.3,0018.05,0009.47,0008.62
2021-09-06 01:50:00,,0830.0,5.00,0.00,29.1,25.6,00.0,38.3,30.4,11.0,0002.4,0018.63,0009.52,0008.66
2021-09-06 01:51:00,,0830.0,5.00,0.00,29.1,26.1,00.0,38.2,30.6,11.1,0002.3,0019.34,0009.52,0008.68
2021-09-06 01:52:00,,0830.1,5.01,0.00,29.1,26.6,00.0,38.2,30.7,11.0,0002.3,0019.64,0009.54,0008.69
2021-09-06 01:53:00,,0830.1,4.99,0.00,29.1,27.1,00.0,38.2,30.8,11.0,0001.9,0019.94,0009.54,0008.70
2021-09-06 01:54:00,,0830.1,5.00,0.00,29.1,27.4,00.0,38.2,30.9,11.1,0001.5,0019.16,0009.49,0008.70
2021-09-06 01:55:00,,0830.1,4.99,0.00,29.2,27.8,00.0,38.2,31.0,11.2,0001.1,0018.93,0009.46,0008.69
2021-09-06 01:56:00,,0830.1,5.00,0.00,29.2,28.0,00.0,38.2,31.1,11.2,0001.5,0018.57,0009.46,0008.70
2021-09-06 01:57:00,,0830.1,5.01,0.00,29.3,28.2,00.0,38.2,31.1,11.1,0001.7,0018.84,0009.52,0008.74
2021-09-06 01:58:00,,0830.1,5.02,0.00,29.3,28.4,00.0,38.3,31.2,11.0,0001.4,0018.36,0009.52,0008.75
2021-09-06 01:59:00,,0830.2,5.01,0.00,29.4,28.6,00.0,38.3,31.3,11.0,0001.0,0018.68,0009.52,0008.75
